This is the latest recevied weather packets stored in our database for station/object JA3QOS-13. If no packets are shown the sender has not sent any weather packets the latest 10 day(s).
| Time | Temp. | Humidity | Pressure | Rain* | Wind** | Luminosity | Snow |
|---|---|---|---|---|---|---|---|
| 1788116403 | 22.22° C | 99% | 1012 hPa | 0 mm | - | - | - |
| 1788114604 | 22.78° C | 99% | 1012 hPa | 0 mm | - | - | - |
| 1788112803 | 22.78° C | 99% | 1011.9 hPa | 0 mm | - | - | - |
| 1788111004 | 22.78° C | 99% | 1012 hPa | 0 mm | - | - | - |
| 1788109203 | 22.78° C | 99% | 1011.8 hPa | 0 mm | - | - | - |
| 1788107404 | 22.78° C | 99% | 1011.9 hPa | 0 mm | - | - | - |
| 1788105603 | 22.78° C | 99% | 1012 hPa | 0 mm | - | - | - |
| 1788103804 | 22.78° C | 99% | 1012 hPa | 0 mm | - | - | - |
| 1788102004 | 22.78° C | 99% | 1012 hPa | 0 mm | - | - | - |
| 1788100203 | 23.33° C | 99% | 1012.1 hPa | 0 mm | - | - | - |
| 1788098404 | 23.89° C | 99% | 1012.4 hPa | 0 mm | - | - | - |
| 1788096603 | 23.89° C | 99% | 1012.2 hPa | 0 mm | - | - | - |
| 1788094803 | 23.89° C | 99% | 1012.3 hPa | 0 mm | - | - | - |
| 1788093003 | 23.33° C | 99% | 1012.4 hPa | 0 mm | - | - | - |
| 1788091204 | 23.33° C | 99% | 1012.5 hPa | 0 mm | - | - | - |
| 1788089403 | 23.89° C | 99% | 1012.2 hPa | 0 mm | - | - | - |
| 1788087604 | 23.33° C | 99% | 1011.9 hPa | 0 mm | - | - | - |
| 1788085804 | 23.33° C | 99% | 1011.5 hPa | 0 mm | - | - | - |
| 1788084003 | 23.33° C | 99% | 1011.5 hPa | 0 mm | - | - | - |
| 1788082203 | 23.89° C | 99% | 1011.5 hPa | 0 mm | - | - | - |
| 1788080404 | 23.89° C | 99% | 1011.2 hPa | 0 mm | - | - | - |
| 1788078604 | 24.44° C | 96% | 1010.9 hPa | 0 mm | - | - | - |
| 1788076803 | 26.67° C | 87% | 1010.9 hPa | 0 mm | - | - | - |
| 1788075003 | 31.11° C | 78% | 1010.6 hPa | 0 mm | - | - | - |
| 1788073204 | 30° C | 80% | 1010.2 hPa | 0 mm | - | - | - |
* Rain latest hour (hover to see other rain measurements)
** Current wind speed in m/s (hover to see current wind gust speed)